EW2642 Weather Reports


Display with metric or nautical units.
time (UTC)temp
F
wind
direction
speed
MPH
gust
MPH
rain 1hr
in
rain 24hr
in
rain mn
in
humidity
%
barometer
mb
20260903230024 83 152 14.0 22.0 0.00 0.00 0.00 33 849.4
20260903224530 84 190 16.0 23.0 0.00 0.00 0.00 33 849.5
20260903223018 84 153 12.0 23.0 0.00 0.00 0.00 32 849.7
20260903221520 84 250 13.0 19.0 0.00 0.00 0.00 35 849.9
20260903220021 84 209 11.0 18.0 0.00 0.00 0.00 33 850.1
20260903214523 84 189 10.0 19.0 0.00 0.00 0.00 34 850.2
20260903213023 83 222 12.0 21.0 0.00 0.00 0.00 34 850.3
20260903211528 83 162 15.0 28.0 0.00 0.00 0.00 34 850.4
20260903210024 83 227 12.0 23.0 0.00 0.00 0.00 34 850.4
20260903204523 83 166 13.0 22.0 0.00 0.00 0.00 33 850.6
20260903203024 83 197 11.0 25.0 0.00 0.00 0.00 34 850.5
20260903201523 83 171 16.0 27.0 0.00 0.00 0.00 34 850.6
20260903200023 82 174 15.0 28.0 0.00 0.00 0.00 34 850.6
20260903194532 83 246 14.0 27.0 0.00 0.00 0.00 33 850.8
20260903193023 82 172 12.0 25.0 0.00 0.00 0.00 32 850.8
20260903191530 82 205 9.0 23.0 0.00 0.00 0.00 34 851.0
20260903190024 82 222 12.0 21.0 0.00 0.00 0.00 34 851.0
20260903184522 81 202 13.0 25.0 0.00 0.00 0.00 34 851.2
20260903183023 81 150 13.0 29.0 0.00 0.00 0.00 35 851.5
20260903181522 81 178 9.0 22.0 0.00 0.00 0.00 35 851.7
20260903180024 80 168 13.0 21.0 0.00 0.00 0.00 36 851.8
20260903174523 80 184 12.0 21.0 0.00 0.00 0.00 37 852.0
20260903173026 79 159 12.0 26.0 0.00 0.00 0.00 37 852.0
20260903171523 79 194 13.0 22.0 0.00 0.00 0.00 38 851.9
20260903170035 79 172 13.0 28.0 0.00 0.00 0.00 38 851.8
20260903164526 78 210 11.0 24.0 0.00 0.00 0.00 39 851.7
20260903163034 78 194 11.0 20.0 0.00 0.00 0.00 39 851.7
20260903161522 77 180 5.0 13.0 0.00 0.00 0.00 40 851.9
20260903160023 75 126 8.0 15.0 0.00 0.00 0.00 42 851.8
20260903154524 74 114 9.0 15.0 0.00 0.00 0.00 42 852.0
20260903153023 73 140 11.0 15.0 0.00 0.00 0.00 42 852.1
20260903151538 71 130 9.0 13.0 0.00 0.00 0.00 44 852.1
20260903150038 70 127 8.0 11.0 0.00 0.00 0.00 45 852.2
20260903144524 68 115 6.0 9.0 0.00 0.00 0.00 48 852.1
20260903143033 65 126 3.0 6.0 0.00 0.00 0.00 53 852.2
20260903141523 62 144 2.0 5.0 0.00 0.00 0.00 56 852.1
20260903140024 59 137 2.0 4.0 0.00 0.00 0.00 64 852.0
20260903134525 58 151 2.0 6.0 0.00 0.00 0.00 65 851.9
20260903133025 57 121 4.0 6.0 0.00 0.00 0.00 63 851.5
20260903131537 58 142 2.0 5.0 0.00 0.00 0.00 61 851.4
20260903130027 59 175 4.0 7.0 0.00 0.00 0.00 59 851.4
20260903124524 60 190 2.0 6.0 0.00 0.00 0.00 55 851.0
20260903123026 61 171 4.0 8.0 0.00 0.00 0.00 57 851.1
20260903121525 62 190 3.0 6.0 0.00 0.00 0.00 52 851.1
20260903120024 60 191 3.0 7.0 0.00 0.00 0.00 57 851.1
20260903114527 58 181 4.0 8.0 0.00 0.00 0.00 58 851.0
20260903113025 57 198 5.0 9.0 0.00 0.00 0.00 59 851.1
20260903111523 57 158 3.0 5.0 0.00 0.00 0.00 61 851.2
20260903110024 58 159 3.0 5.0 0.00 0.00 0.00 59 851.1
20260903104526 58 161 3.0 6.0 0.00 0.00 0.00 56 851.1
20260903103024 60 151 3.0 4.0 0.00 0.00 0.00 53 851.3
20260903101540 61 164 2.0 5.0 0.00 0.00 0.00 50 851.2
20260903100029 62 178 1.0 4.0 0.00 0.00 0.00 46 851.3
20260903094527 63 137 1.0 7.0 0.00 0.00 0.00 46 851.3
20260903093037 61 198 5.0 8.0 0.00 0.00 0.00 46 851.3
20260903091526 59 204 7.0 9.0 0.00 0.00 0.00 52 851.3
20260903090024 59 132 3.0 7.0 0.00 0.00 0.00 54 851.5
20260903084532 61 182 2.0 9.0 0.00 0.00 0.00 48 851.2
20260903083026 63 132 4.0 7.0 0.00 0.00 0.00 45 851.4
20260903081527 64 167 5.0 9.0 0.00 0.00 0.00 40 851.6
20260903080037 60 169 5.0 8.0 0.00 0.00 0.00 44 851.5
20260903074524 60 144 3.0 8.0 0.00 0.00 0.00 48 851.7
20260903073031 63 181 4.0 6.0 0.00 0.00 0.00 46 851.8
20260903071527 64 170 2.0 6.0 0.00 0.00 0.00 46 851.8
20260903070026 66 183 4.0 6.0 0.00 0.00 0.00 39 851.8
20260903064523 69 161 3.0 5.0 0.00 0.00 0.00 38 851.7
20260903063024 69 188 4.0 9.0 0.00 0.00 0.00 35 851.7
20260903061523 69 163 5.0 9.0 0.00 0.00 0.00 35 851.7
20260903060023 70 184 3.0 8.0 0.00 0.00 0.00 35 851.7
20260903054525 70 172 3.0 8.0 0.00 0.00 0.00 35 851.7
20260903053026 69 184 3.0 5.0 0.00 0.00 0.00 37 851.8
20260903051527 69 225 4.0 11.0 0.00 0.00 0.00 39 851.8
20260903050028 68 169 4.0 10.0 0.00 0.00 0.00 43 851.8
20260903044524 69 168 4.0 7.0 0.00 0.00 0.00 43 851.8
20260903043030 70 194 5.0 9.0 0.00 0.00 0.00 42 851.8
20260903041524 70 193 6.0 9.0 0.00 0.00 0.00 41 851.7
20260903040034 69 134 4.0 13.0 0.00 0.00 0.00 43 851.6
20260903034523 68 148 3.0 5.0 0.00 0.00 0.00 46 851.5
20260903033003 69 145 3.0 6.0 0.00 0.00 0.00 45 851.3
20260903031504 71 155 3.0 6.0 0.00 0.00 0.00 42 851.3
20260903030030 72 168 3.0 5.0 0.00 0.00 0.00 39 851.3
20260903024504 74 172 1.0 4.0 0.00 0.00 0.00 38 851.1
20260903023035 75 178 3.0 9.0 0.00 0.00 0.00 35 850.9
20260903021539 76 221 4.0 7.0 0.00 0.00 0.00 33 850.7
20260903020024 77 180 4.0 8.0 0.00 0.00 0.00 32 850.8
20260903014528 78 169 5.0 18.0 0.00 0.00 0.00 31 850.9
20260903013028 79 186 5.0 14.0 0.00 0.00 0.00 30 850.8
20260903011527 80 227 10.0 16.0 0.00 0.00 0.00 30 850.8
20260903010025 81 207 10.0 18.0 0.00 0.00 0.00 29 850.8
20260903004524 82 226 8.0 17.0 0.00 0.00 0.00 29 850.8
20260903003026 82 222 10.0 16.0 0.00 0.00 0.00 29 851.0
20260903001540 83 225 11.0 20.0 0.00 0.00 0.00 30 851.0
20260903000025 83 228 12.0 20.0 0.00 0.00 0.00 29 850.9
20260902234528 84 230 15.0 20.0 0.00 0.00 0.00 31 851.0
20260902233028 84 180 12.0 19.0 0.00 0.00 0.00 30 851.0
20260902231528 84 173 11.0 23.0 0.00 0.00 0.00 32 851.1